Hamilton Island Airport
YBHM : now visible

Airfield :











YOU CAN JOIN US ON...

 
LOGIN :

Register | Disclaimer

   EN    FR    IT 

 









Legend :    VFR   Marginal VFR   IFR   Intensive IFR   Very Intensive IFR
Visi :
Ceiling :
>= 8 km
>= 3000ft
5 to 8 km
1000 to 3000 ft
1500m to 5 km
500 to 1000 ft
800 to 1500m
200 to 500 ft
< 800m
< 200 ft
Symbols :   Thunderstorms  Fog  Heavy snow  Heavy precipitations  Wind > 20 kt






- Airport Elevation : 15 ft
- IATA code : HTI


YBHM - Hamilton Island

CURRENT METAR :
  • 050700Z AUTO 11016KT 9999 // NCD 28/22 Q1008

EXPIRED METARs :
  • 050630Z AUTO 12017KT 9999 // NCD 28/22 Q1008 RF00.0/000.0
  • 050600Z AUTO 12015KT 9999 // NCD 28/22 Q1008 RF00.0/000.0
  • 050530Z AUTO 11015KT 9999 // NCD 29/23 Q1008 RF00.0/000.0
  • 050500Z AUTO 12013KT 9999 // NCD 29/23 Q1008 RF00.0/000.0

TAF TAF YBHM
Valid from the 05 at 06:00 until the 05 at 18:00 UTC


050443Z 0506/0518 13015KT 9999 FEW030
YBBB FIR / Oceania



MET'MAP, your aeronautical weather chart ! - Copyright ORBIFLY December 2007 - Disclaimer

ORBIFLY MET'MAP TEAM :

Programming & Development : Alexandra Zaïnal
Concept & original design : Baudouin d'Aumeries
Assistance for programming : Marc-Olivier Méhu
Technical & hardware support : Manuel Goepfert

Contact : metmap@orbifly.com




SOURCES & CREDITS :

   NOAA       Earth
Advisory